COSMOS 2569 (703K)

Last updated on Thu Nov 21 2024 00:02:31 GMT+0000 (Coordinated Universal Time)

1 57517U 23114A 24324.41403532 .00000012 00000+0 00000+0 0 9994 2 57517 64.9906 92.0532 0009282 289.8522 70.0288 2.13104050 10012
UTC large
Height (km)
Speed (km/s)
/
Latitude / Longitude
Inclination (degrees)
Orbital Period (minutes)
Azimuth
Elevation
Range (km)
Doppler Factor

Next 0 passes for location: London (51.5072 / 0.1276)

Sorry there are no passes over London.